• In Germany
  • List of Countries
  • For 7 days
  • Water Temperature
  • Satellite Maps
  • Weather Map
  • Weather Widgets
  • user-avatar
    Login

    Hourly Weather Etchmiadzin

    Today, 21 July, Friday

    Time Temperature Precipitation Wind Pressure Humidity
    00:00 +25°C° 0 mm 3 mps 684 mmHg 53%
    01:00 +24°C° 0 mm 3 mps 684 mmHg 53%
    02:00 +24°C° 0 mm 2 mps 684 mmHg 54%
    03:00 +23°C° 0 mm 2 mps 684 mmHg 54%
    04:00 +24°C° 0 mm 2 mps 684 mmHg 53%
    05:00 +24°C° 0 mm 2 mps 685 mmHg 53%
    06:00 +24°C° 0 mm 2 mps 685 mmHg 52%
    07:00 +27°C° 0 mm 2 mps 685 mmHg 46%
    08:00 +29°C° 0 mm 2 mps 685 mmHg 39%
    09:00 +31°C° 0 mm 1 mps 685 mmHg 33%
    10:00 +34°C° 0 mm 2 mps 685 mmHg 30%
    11:00 +35°C° 0 mm 2 mps 685 mmHg 27%
    12:00 +37°C° 0 mm 2 mps 685 mmHg 24%
    13:00 +37°C° 0 mm 2 mps 685 mmHg 24%
    14:00 +38°C° 0 mm 2 mps 685 mmHg 23%
    15:00 +38°C° 0 mm 3 mps 685 mmHg 22%
    16:00 +37°C° 0 mm 3 mps 684 mmHg 25%
    17:00 +37°C° 0 mm 3 mps 684 mmHg 28%
    18:00 +36°C° 0 mm 3 mps 684 mmHg 32%
    19:00 +33°C° 0 mm 3 mps 684 mmHg 38%
    20:00 +30°C° 0 mm 3 mps 685 mmHg 44%
    21:00 +28°C° 0 mm 3 mps 685 mmHg 50%
    22:00 +27°C° 0 mm 3 mps 685 mmHg 49%
    23:00 +26°C° 0 mm 3 mps 685 mmHg 48%

    Tomorrow, 22 July, Saturday

    Time Temperature Precipitation Wind Pressure Humidity
    00:00 +26°C° 0 mm 2 mps 685 mmHg 46%
    01:00 +25°C° 0 mm 2 mps 685 mmHg 46%
    02:00 +24°C° 0 mm 2 mps 685 mmHg 45%
    03:00 +24°C° 0 mm 2 mps 685 mmHg 44%
    04:00 +24°C° 0 mm 2 mps 686 mmHg 44%
    05:00 +25°C° 0 mm 2 mps 686 mmHg 43%
    06:00 +25°C° 0 mm 2 mps 686 mmHg 43%
    07:00 +27°C° 0 mm 2 mps 686 mmHg 38%
    08:00 +30°C° 0 mm 2 mps 686 mmHg 33%
    09:00 +32°C° 0 mm 2 mps 686 mmHg 28%
    10:00 +34°C° 0 mm 2 mps 686 mmHg 25%
    11:00 +36°C° 0 mm 2 mps 686 mmHg 23%
    12:00 +37°C° 0 mm 3 mps 686 mmHg 21%
    13:00 +38°C° 0 mm 3 mps 686 mmHg 21%
    14:00 +38°C° 0 mm 3 mps 685 mmHg 20%
    15:00 +39°C° 0 mm 3 mps 685 mmHg 20%
    16:00 +38°C° 0 mm 3 mps 685 mmHg 23%
    17:00 +37°C° 0 mm 4 mps 684 mmHg 26%
    18:00 +36°C° 0 mm 4 mps 684 mmHg 29%
    19:00 +34°C° 0 mm 4 mps 684 mmHg 34%
    20:00 +30°C° 0 mm 3 mps 684 mmHg 40%
    21:00 +28°C° 0 mm 3 mps 685 mmHg 46%
    22:00 +27°C° 0 mm 3 mps 685 mmHg 45%
    23:00 +26°C° 0 mm 3 mps 685 mmHg 45%

    Day after tomorrow, 23 July, Sunday

    Time Temperature Precipitation Wind Pressure Humidity
    00:00 +26°C° 0 mm 3 mps 685 mmHg 44%
    01:00 +25°C° 0 mm 2 mps 685 mmHg 45%
    02:00 +25°C° 0 mm 2 mps 685 mmHg 45%
    03:00 +24°C° 0 mm 2 mps 684 mmHg 45%
    04:00 +25°C° 0 mm 2 mps 684 mmHg 46%
    05:00 +25°C° 0 mm 2 mps 684 mmHg 46%
    06:00 +25°C° 0 mm 2 mps 684 mmHg 46%
    07:00 +27°C° 0 mm 2 mps 685 mmHg 40%
    08:00 +30°C° 0 mm 2 mps 685 mmHg 34%
    09:00 +32°C° 0 mm 2 mps 685 mmHg 29%
    10:00 +34°C° 0 mm 2 mps 684 mmHg 27%
    11:00 +36°C° 0 mm 2 mps 684 mmHg 24%
    12:00 +37°C° 0 mm 2 mps 684 mmHg 22%
    13:00 +38°C° 0 mm 2 mps 684 mmHg 22%
    14:00 +38°C° 0 mm 2 mps 683 mmHg 21%
    15:00 +39°C° 0 mm 2 mps 683 mmHg 21%
    16:00 +38°C° 0 mm 3 mps 682 mmHg 24%
    17:00 +37°C° 0 mm 3 mps 682 mmHg 27%
    18:00 +36°C° 0 mm 4 mps 682 mmHg 31%
    19:00 +33°C° 0 mm 4 mps 682 mmHg 36%
    20:00 +30°C° 0 mm 4 mps 683 mmHg 40%
    21:00 +28°C° 0 mm 4 mps 683 mmHg 45%
    22:00 +27°C° 0 mm 4 mps 683 mmHg 46%
    23:00 +26°C° 0 mm 3 mps 683 mmHg 47%

    24 July, Monday

    Time Temperature Precipitation Wind Pressure Humidity
    00:00 +25°C° 0 mm 3 mps 683 mmHg 48%
    01:00 +24°C° 0 mm 3 mps 683 mmHg 52%
    02:00 +22°C° 0 mm 3 mps 683 mmHg 56%
    03:00 +22°C° 0 mm 3 mps 683 mmHg 60%
    04:00 +23°C° 0 mm 2 mps 683 mmHg 61%
    05:00 +23°C° 0 mm 2 mps 683 mmHg 61%
    06:00 +24°C° 0 mm 2 mps 683 mmHg 61%
    07:00 +26°C° 0 mm 2 mps 683 mmHg 54%
    08:00 +28°C° 0 mm 2 mps 683 mmHg 46%
    09:00 +30°C° 0 mm 2 mps 683 mmHg 38%
    10:00 +32°C° 0 mm 2 mps 683 mmHg 34%
    11:00 +34°C° 0 mm 2 mps 683 mmHg 30%
    12:00 +36°C° 0 mm 2 mps 683 mmHg 27%
    13:00 +36°C° 0 mm 2 mps 682 mmHg 26%
    14:00 +37°C° 0 mm 2 mps 682 mmHg 25%
    15:00 +37°C° 0 mm 3 mps 682 mmHg 24%
    16:00 +36°C° 0.1 mm 3 mps 682 mmHg 27%
    17:00 +36°C° 0.1 mm 3 mps 682 mmHg 30%
    18:00 +35°C° 0.1 mm 3 mps 681 mmHg 33%
    19:00 +33°C° 0 mm 3 mps 682 mmHg 40%
    20:00 +29°C° 0 mm 3 mps 682 mmHg 46%
    21:00 +27°C° 0 mm 3 mps 682 mmHg 53%
    22:00 +26°C° 0.1 mm 3 mps 682 mmHg 53%
    23:00 +26°C° 0.1 mm 3 mps 682 mmHg 54%

    25 July, Tuesday

    Time Temperature Precipitation Wind Pressure Humidity
    00:00 +25°C° 0.1 mm 2 mps 682 mmHg 54%
    01:00 +25°C° 0 mm 2 mps 682 mmHg 55%
    02:00 +24°C° 0 mm 2 mps 682 mmHg 57%
    03:00 +24°C° 0 mm 2 mps 682 mmHg 58%
    04:00 +24°C° 0 mm 2 mps 682 mmHg 57%
    05:00 +24°C° 0 mm 2 mps 682 mmHg 56%
    06:00 +25°C° 0 mm 2 mps 683 mmHg 55%
    07:00 +27°C° 0 mm 2 mps 683 mmHg 47%
    08:00 +29°C° 0 mm 2 mps 683 mmHg 40%
    09:00 +31°C° 0 mm 2 mps 683 mmHg 33%
    10:00 +34°C° 0 mm 2 mps 683 mmHg 29%
    11:00 +35°C° 0 mm 2 mps 682 mmHg 26%
    12:00 +37°C° 0 mm 3 mps 682 mmHg 23%
    13:00 +37°C° 0 mm 3 mps 682 mmHg 22%
    14:00 +38°C° 0 mm 3 mps 682 mmHg 21%
    15:00 +38°C° 0 mm 3 mps 681 mmHg 20%
    16:00 +37°C° 0.2 mm 3 mps 681 mmHg 23%
    17:00 +36°C° 0.2 mm 3 mps 681 mmHg 25%
    18:00 +36°C° 0.2 mm 3 mps 681 mmHg 28%
    19:00 +33°C° 0.1 mm 3 mps 681 mmHg 36%
    20:00 +30°C° 0.1 mm 3 mps 682 mmHg 43%
    21:00 +27°C° 0.1 mm 4 mps 682 mmHg 51%
    22:00 +26°C° 0 mm 3 mps 682 mmHg 54%
    23:00 +25°C° 0 mm 3 mps 682 mmHg 56%

    26 July, Wednesday

    Time Temperature Precipitation Wind Pressure Humidity
    00:00 +25°C° 0 mm 3 mps 682 mmHg 58%
    01:00 +24°C° 0 mm 2 mps 682 mmHg 60%
    02:00 +23°C° 0 mm 2 mps 682 mmHg 62%
    03:00 +23°C° 0 mm 2 mps 682 mmHg 64%
    04:00 +23°C° 0 mm 2 mps 683 mmHg 62%
    05:00 +24°C° 0 mm 2 mps 683 mmHg 60%
    06:00 +24°C° 0 mm 1 mps 683 mmHg 59%
    07:00 +27°C° 0 mm 1 mps 683 mmHg 50%
    08:00 +29°C° 0 mm 1 mps 684 mmHg 41%
    09:00 +31°C° 0 mm 2 mps 684 mmHg 32%
    10:00 +34°C° 0 mm 2 mps 684 mmHg 29%
    11:00 +35°C° 0 mm 2 mps 684 mmHg 25%
    12:00 +37°C° 0 mm 2 mps 683 mmHg 22%
    13:00 +37°C° 0 mm 2 mps 683 mmHg 21%
    14:00 +38°C° 0 mm 2 mps 683 mmHg 20%
    15:00 +38°C° 0 mm 2 mps 683 mmHg 20%
    16:00 +37°C° 0.1 mm 2 mps 683 mmHg 22%
    17:00 +37°C° 0.1 mm 2 mps 683 mmHg 25%
    18:00 +36°C° 0.1 mm 3 mps 683 mmHg 28%
    19:00 +34°C° 0.1 mm 3 mps 683 mmHg 36%
    20:00 +30°C° 0.1 mm 3 mps 683 mmHg 43%
    21:00 +28°C° 0.1 mm 3 mps 684 mmHg 51%
    22:00 +27°C° 0.1 mm 3 mps 684 mmHg 53%
    23:00 +26°C° 0.1 mm 3 mps 684 mmHg 56%
    Show more